"Pseudo-MPEC" for C5Y6DL2

Created 2021 Sep 15 12:07:05 UT using Find_Orb

Click here for an explanation of pseudo-MPECs

 
 Astrometry: 
     C5Y6DL2 KC2021 09 13.17597022 01 40.08 -05 07 29.6    ~9D77 20.00GVNEOCPG96
     C5Y6DL2 KC2021 09 13.17651122 01 41.10 -05 07 13.3    ~9D77 19.71GVNEOCPG96
     C5Y6DL2 mC2021 09 13.23997322 03 26.03 -04 35 48.0    ~9D7M 19.93GVNEOCPG96
     C5Y6DL2 mC2021 09 13.24015322 03 26.29 -04 35 42.8    ~9D7M 19.67GVNEOCPG96
     C5Y6DL2 mC2021 09 13.24033322 03 26.57 -04 35 37.3    ~9D7M 19.81GVNEOCPG96
     C5Y6DL2 mC2021 09 13.24051322 03 26.84 -04 35 32.1    ~9D7M 19.76GVNEOCPG96
     C5Y6DL2 mC2021 09 13.36770522 06 56.96 -03 34 15.3    ~9D97       VNEOCPG96
     C5Y6DL2 mC2021 09 13.36788622 06 57.30 -03 34 11.3    ~9D97 20.24GVNEOCPG96
     C5Y6DL2 mC2021 09 13.36806722 06 57.65 -03 34 05.8    ~9D97 20.23GVNEOCPG96
     C5Y6DL2 mC2021 09 13.36825222 06 58.07 -03 34 00.6    ~9D97 20.27GVNEOCPG96

Station data:
(G96) Mt. Lemmon Survey  (N32.442754 W110.788720)  US/Arizona.  Observers T.
   A. Pruyne, B. M. Africano, E. J. Christensen, G. A. Farneth, D. C. Fuls,
   A. R. Gibbs, A. D. Grauer, H. Gröller, J. A. Johnson, R. A. Kowalski, S.
   M. Larson, G. J. Leonard, D. Rankin, R. L. Seaman, F. C. Shelly. 1.5-m
   reflector + 10K CCD.

Orbital elements:  C5Y6DL2
   Perigee 2021 Sep 12.315141 +/- 0.00772759 TT =  7:33:48 (JD 2459469.815141)
Epoch 2021 Sep 13.0 TT = JDT 2459470.5                        AutoNEOCP
M  75.27495694 +/- 0.2397470        (J2000 equator)
n 109.91300918 +/- 1.40533          Peri.  183.32629 +/- 0.4757889
a 93161.7077 +/- 793.96             Node   338.79182 +/- 0.6318251
e   0.8723853 +/- 0.00124469        Incl.   21.51872 +/- 0.0007559
P4716.37m/3.275d           H 34.3   G  0.15   U 13.0  
q 11888.8002 +/- 218.265    Q 174434.615 +/- 1385
From 10 observations 2021 Sept. 13 (4.6 hr); mean residual 0".24
Residuals in arcseconds: 
210913 G96  .06+  .07-    210913 G96  .04+  .09+    210913 G96  .47-  .06-    
210913 G96  .05-  .07+    210913 G96  .06+  .02-    210913 G96  .03+  .05-    
210913 G96  .01+  .02+    210913 G96  .51+  .59+    
210913 G96  .13-  .09-    210913 G96  .06-  .49-    

Ephemerides (geocentric):
Date (UTC) HH   RA              Dec         delta   r     elong  mag " sig PA
---- -- -- --  -------------   -----------  ------ ------ -----  --- ---- ---
2021 09 15 12  02 58 18.416   +19 44 32.21   36168 1.0057 124.7 18.2 947'  82
2021 09 15 13  04 35 07.511   +21 28 41.26   23521 1.0056 102.3 18.0  51d  90
2021 09 15 14  09 32 30.921   +06 03 12.83   12276 1.0055  30.2 22??  91d 111
2021 09 15 15  16 09 23.974   -21 21 23.99   19561 1.0055  71.7 18.9  28d  92
2021 09 15 16  18 19 13.300   -19 28 00.34   32533 1.0056 101.8 18.7 731'  80
2021 09 15 17  19 14 45.463   -16 47 10.00   44164 1.0056 115.0 18.9 440'  76
2021 09 15 18  19 47 08.765   -14 44 17.83   54486 1.0057 123.0 19.2 308'  74
2021 09 15 19  20 09 13.564   -13 09 12.56   63774 1.0058 128.4 19.3 234'  72
2021 09 15 20  20 25 41.898   -11 52 45.50   72232 1.0058 132.5 19.5 189'  71
2021 09 15 21  20 38 43.325   -10 49 13.84   80002 1.0059 135.8 19.6 9452  70
2021 09 15 22  20 49 26.632   -09 55 02.39   87189 1.0059 138.5 19.7 8119  70
2021 09 15 23  20 58 32.174   -09 07 50.53   93869 1.0059 140.8 19.8 7122  70
2021 09 16 00  21 06 25.422   -08 26 02.43  100101 1.0060 142.7 19.9 6352  69
2021 09 16 01  21 13 23.371   -07 48 30.38  105932 1.0060 144.5 20.0 5741  69
2021 09 16 02  21 19 37.871   -07 14 25.00  111399 1.0060 146.0 20.1 5247  69
2021 09 16 03  21 25 17.482   -06 43 09.31  116533 1.0061 147.5 20.1 4840  69
2021 09 16 04  21 30 28.572   -06 14 14.93  121360 1.0061 148.7 20.2 4501  68
2021 09 16 05  21 35 15.998   -05 47 19.70  125900 1.0061 149.9 20.2 4214  68
2021 09 16 06  21 39 43.541   -05 22 05.97  130172 1.0061 151.0 20.3 3969  68
2021 09 16 07  21 43 54.202   -04 58 19.48  134192 1.0061 152.1 20.3 3758  68
2021 09 16 08  21 47 50.399   -04 35 48.53  137972 1.0062 153.0 20.3 3576  68
2021 09 16 09  21 51 34.108   -04 14 23.44  141525 1.0062 153.9 20.4 3417  68
2021 09 16 10  21 55 06.966   -03 53 56.08  144861 1.0062 154.8 20.4 3279  68
2021 09 16 11  21 58 30.345   -03 34 19.55  147989 1.0062 155.6 20.4 3157  68
2021 09 16 12  22 01 45.406   -03 15 27.96  150916 1.0062 156.4 20.4 3051  68
2021 09 16 13  22 04 53.141   -02 57 16.21  153650 1.0062 157.1 20.4 2957  68
2021 09 16 14  22 07 54.407   -02 39 39.89  156198 1.0062 157.8 20.5 2874  68
2021 09 16 15  22 10 49.950   -02 22 35.11  158564 1.0062 158.5 20.5 2802  68
2021 09 16 16  22 13 40.425   -02 05 58.43  160753 1.0063 159.2 20.5 2738  68
2021 09 16 17  22 16 26.411   -01 49 46.79  162771 1.0063 159.9 20.5 2683  69
2021 09 16 18  22 19 08.425   -01 33 57.45  164620 1.0063 160.5 20.5 2636  69
2021 09 16 19  22 21 46.931   -01 18 27.94  166305 1.0063 161.1 20.5 2595  69
2021 09 16 20  22 24 22.350   -01 03 15.99  167828 1.0063 161.7 20.5 2561  69
2021 09 16 21  22 26 55.066   -00 48 19.55  169192 1.0063 162.3 20.5 2533  69
2021 09 16 22  22 29 25.434   -00 33 36.70  170400 1.0063 162.8 20.5 2511  69
2021 09 16 23  22 31 53.780   -00 19 05.68  171453 1.0063 163.4 20.5 2494  69
2021 09 17 00  22 34 20.411   -00 04 44.82  172353 1.0063 163.9 20.5 2482  69
2021 09 17 01  22 36 45.617   +00 09 27.45  173102 1.0063 164.4 20.5 2476  69
2021 09 17 02  22 39 09.673   +00 23 32.62  173700 1.0063 164.9 20.5 2475  69
2021 09 17 03  22 41 32.843   +00 37 32.12  174150 1.0063 165.5 20.4 2478  69
2021 09 17 04  22 43 55.382   +00 51 27.34  174451 1.0062 165.9 20.4 2487  69
2021 09 17 05  22 46 17.539   +01 05 19.62  174604 1.0062 166.4 20.4 2501  70
2021 09 17 06  22 48 39.563   +01 19 10.30  174609 1.0062 166.9 20.4 2521  70
2021 09 17 07  22 51 01.696   +01 33 00.69  174467 1.0062 167.4 20.4 2545  70
2021 09 17 08  22 53 24.186   +01 46 52.11  174176 1.0062 167.8 20.4 2576  70
2021 09 17 09  22 55 47.282   +02 00 45.90  173737 1.0062 168.3 20.3 2612  70
2021 09 17 10  22 58 11.240   +02 14 43.40  173149 1.0062 168.7 20.3 2654  70
2021 09 17 11  23 00 36.323   +02 28 46.02  172411 1.0062 169.2 20.3 2704  70